Time,TemperatureF,DewpointF,PressureIn,WindDirection,WindDirectionDegrees,WindSpeedMPH,WindSpeedGustMPH,Humidity,HourlyPrecipIn,Conditions,Clouds,dailyrainin,SoftwareType,DateUTC
2013-01-30 00:12:00,31.0,-99.9,-100.00,NNW,345,15.0,20.0,-999,-99.99,,,-99.99,,2013-01-30 06:12:00,
2013-01-30 00:22:00,31.0,-99.9,-100.00,NNW,342,14.0,21.0,-999,-99.99,,,-99.99,,2013-01-30 06:22:00,
2013-01-30 00:32:00,31.0,-99.9,-100.00,NNW,342,14.0,21.0,-999,-99.99,,,-99.99,,2013-01-30 06:32:00,
2013-01-30 00:40:00,31.0,-99.9,-100.00,NNW,330,18.0,22.0,-999,-99.99,,,-99.99,,2013-01-30 06:40:00,
2013-01-30 00:42:00,31.0,-99.9,-100.00,NNW,342,14.0,21.0,-999,-99.99,,,-99.99,,2013-01-30 06:42:00,
2013-01-30 00:52:00,31.0,-99.9,-100.00,NNW,342,14.0,21.0,-999,-99.99,,,-99.99,,2013-01-30 06:52:00,
2013-01-30 01:02:00,31.0,-99.9,-100.00,NNW,342,14.0,21.0,-999,-99.99,,,-99.99,,2013-01-30 07:02:00,
2013-01-30 01:12:00,31.0,-99.9,-100.00,NNW,330,18.0,22.0,-999,-99.99,,,-99.99,,2013-01-30 07:12:00,
2013-01-30 01:22:00,31.0,-99.9,-100.00,NNW,330,18.0,22.0,-999,-99.99,,,-99.99,,2013-01-30 07:22:00,
2013-01-30 01:32:00,31.0,-99.9,-100.00,NNW,330,18.0,22.0,-999,-99.99,,,-99.99,,2013-01-30 07:32:00,
2013-01-30 02:02:00,29.0,-99.9,-100.00,NNW,343,21.0,26.0,-999,-99.99,,,-99.99,,2013-01-30 08:02:00,
2013-01-30 02:11:00,29.0,-99.9,-100.00,NNW,343,21.0,26.0,-999,-99.99,,,-99.99,,2013-01-30 08:11:00,
2013-01-30 02:22:00,29.0,-99.9,-100.00,NNW,343,21.0,26.0,-999,-99.99,,,-99.99,,2013-01-30 08:22:00,
2013-01-30 02:32:00,29.0,-99.9,-100.00,NNW,343,21.0,26.0,-999,-99.99,,,-99.99,,2013-01-30 08:32:00,
2013-01-30 02:42:00,29.0,-99.9,-100.00,NNW,343,21.0,26.0,-999,-99.99,,,-99.99,,2013-01-30 08:42:00,
2013-01-30 02:52:00,29.0,-99.9,-100.00,NNW,343,21.0,26.0,-999,-99.99,,,-99.99,,2013-01-30 08:52:00,
2013-01-30 03:02:00,29.0,-99.9,-100.00,NNW,343,21.0,26.0,-999,-99.99,,,-99.99,,2013-01-30 09:02:00,
2013-01-30 03:12:00,29.0,-99.9,-100.00,NNW,348,21.0,26.0,-999,-99.99,,,-99.99,,2013-01-30 09:12:00,
2013-01-30 03:22:00,29.0,-99.9,-100.00,NNW,348,21.0,27.0,-999,-99.99,,,-99.99,,2013-01-30 09:22:00,
2013-01-30 03:32:00,29.0,-99.9,-100.00,NNW,348,21.0,27.0,-999,-99.99,,,-99.99,,2013-01-30 09:32:00,
2013-01-30 03:40:00,28.0,-99.9,-100.00,North,354,22.0,26.0,-999,-99.99,,,-99.99,,2013-01-30 09:40:00,
2013-01-30 03:42:00,29.0,-99.9,-100.00,NNW,348,21.0,27.0,-999,-99.99,,,-99.99,,2013-01-30 09:42:00,
2013-01-30 03:52:00,29.0,-99.9,-100.00,NNW,348,21.0,27.0,-999,-99.99,,,-99.99,,2013-01-30 09:52:00,
2013-01-30 04:02:00,29.0,-99.9,-100.00,NNW,348,21.0,27.0,-999,-99.99,,,-99.99,,2013-01-30 10:02:00,
2013-01-30 04:12:00,28.0,-99.9,-100.00,North,354,22.0,26.0,-999,-99.99,,,-99.99,,2013-01-30 10:12:00,
2013-01-30 04:22:00,28.0,-99.9,-100.00,North,354,22.0,26.0,-999,-99.99,,,-99.99,,2013-01-30 10:22:00,
2013-01-30 04:32:00,28.0,-99.9,-100.00,North,354,22.0,26.0,-999,-99.99,,,-99.99,,2013-01-30 10:32:00,
2013-01-30 05:11:00,28.0,-99.9,-100.00,North,356,19.0,24.0,-999,-99.99,,,-99.99,,2013-01-30 11:11:00,
2013-01-30 05:22:00,28.0,-99.9,-100.00,North,356,19.0,28.0,-999,-99.99,,,-99.99,,2013-01-30 11:22:00,
2013-01-30 05:33:00,28.0,-99.9,-100.00,North,356,19.0,28.0,-999,-99.99,,,-99.99,,2013-01-30 11:33:00,
2013-01-30 05:40:00,27.0,-99.9,-100.00,NNW,347,20.0,26.0,-999,-99.99,,,-99.99,,2013-01-30 11:40:00,
2013-01-30 05:42:00,28.0,-99.9,-100.00,North,356,19.0,28.0,-999,-99.99,,,-99.99,,2013-01-30 11:42:00,
2013-01-30 05:52:00,28.0,-99.9,-100.00,North,356,19.0,28.0,-999,-99.99,,,-99.99,,2013-01-30 11:52:00,
2013-01-30 06:03:00,28.0,-99.9,-100.00,North,356,19.0,28.0,-999,-99.99,,,-99.99,,2013-01-30 12:03:00,
2013-01-30 06:13:00,27.0,-99.9,-100.00,NNW,347,20.0,26.0,-999,-99.99,,,-99.99,,2013-01-30 12:13:00,
2013-01-30 06:22:00,27.0,-99.9,-100.00,NNW,347,20.0,26.0,-999,-99.99,,,-99.99,,2013-01-30 12:22:00,
2013-01-30 06:33:00,27.0,-99.9,-100.00,NNW,347,20.0,26.0,-999,-99.99,,,-99.99,,2013-01-30 12:33:00,
2013-01-30 06:40:00,27.0,-99.9,-100.00,NNW,339,19.0,22.0,-999,-99.99,,,-99.99,,2013-01-30 12:40:00,
2013-01-30 07:13:00,27.0,-99.9,-100.00,NNW,339,19.0,22.0,-999,-99.99,,,-99.99,,2013-01-30 13:13:00,
2013-01-30 07:23:00,27.0,-99.9,-100.00,NNW,339,19.0,22.0,-999,-99.99,,,-99.99,,2013-01-30 13:23:00,
2013-01-30 07:33:00,27.0,-99.9,-100.00,NNW,339,19.0,22.0,-999,-99.99,,,-99.99,,2013-01-30 13:33:00,
2013-01-30 08:40:00,26.0,-99.9,-100.00,North,354,20.0,25.0,-999,-99.99,,,-99.99,,2013-01-30 14:40:00,
2013-01-30 09:12:00,26.0,-99.9,-100.00,North,354,20.0,25.0,-999,-99.99,,,-99.99,,2013-01-30 15:12:00,
2013-01-30 09:24:00,26.0,-99.9,-100.00,North,354,20.0,25.0,-999,-99.99,,,-99.99,,2013-01-30 15:24:00,
2013-01-30 09:34:00,26.0,-99.9,-100.00,North,354,20.0,25.0,-999,-99.99,,,-99.99,,2013-01-30 15:34:00,
2013-01-30 09:54:00,25.0,-99.9,-100.00,North,7,19.0,26.0,-999,-99.99,,,-99.99,,2013-01-30 15:54:00,
2013-01-30 10:00:00,25.0,-99.9,-100.00,North,7,19.0,26.0,-999,-99.99,,,-99.99,,2013-01-30 16:00:00,
2013-01-30 10:03:00,25.0,-99.9,-100.00,North,7,19.0,26.0,-999,-99.99,,,-99.99,,2013-01-30 16:03:00,
2013-01-30 10:13:00,25.0,-99.9,-100.00,North,6,20.0,27.0,-999,-99.99,,,-99.99,,2013-01-30 16:13:00,
2013-01-30 10:23:00,25.0,-99.9,-100.00,North,7,19.0,26.0,-999,-99.99,,,-99.99,,2013-01-30 16:23:00,
2013-01-30 10:33:00,25.0,-99.9,-100.00,North,7,19.0,26.0,-999,-99.99,,,-99.99,,2013-01-30 16:33:00,
2013-01-30 10:42:00,25.0,-99.9,-100.00,North,7,19.0,26.0,-999,-99.99,,,-99.99,,2013-01-30 16:42:00,
2013-01-30 10:53:00,25.0,-99.9,-100.00,North,7,19.0,26.0,-999,-99.99,,,-99.99,,2013-01-30 16:53:00,
2013-01-30 11:13:00,24.0,-99.9,-100.00,North,8,21.0,26.0,-999,-99.99,,,-99.99,,2013-01-30 17:13:00,
2013-01-30 11:23:00,24.0,-99.9,-100.00,North,8,21.0,26.0,-999,-99.99,,,-99.99,,2013-01-30 17:23:00,
2013-01-30 11:34:00,24.0,-99.9,-100.00,North,8,21.0,26.0,-999,-99.99,,,-99.99,,2013-01-30 17:34:00,
2013-01-30 11:43:00,23.0,-99.9,-100.00,North,352,23.0,29.0,-999,-99.99,,,-99.99,,2013-01-30 17:43:00,
2013-01-30 11:53:00,23.0,-99.9,-100.00,North,352,23.0,29.0,-999,-99.99,,,-99.99,,2013-01-30 17:53:00,
2013-01-30 12:00:00,22.0,-99.9,-100.00,North,349,24.0,0.0,-999,-99.99,,,-99.99,,2013-01-30 18:00:00,
2013-01-30 12:04:00,23.0,-99.9,-100.00,North,352,23.0,29.0,-999,-99.99,,,-99.99,,2013-01-30 18:04:00,
2013-01-30 12:13:00,22.0,-99.9,-100.00,North,349,24.0,29.0,-999,-99.99,,,-99.99,,2013-01-30 18:13:00,
2013-01-30 12:24:00,22.0,-99.9,-100.00,North,349,24.0,0.0,-999,-99.99,,,-99.99,,2013-01-30 18:24:00,
2013-01-30 12:33:00,22.0,-99.9,-100.00,North,349,24.0,0.0,-999,-99.99,,,-99.99,,2013-01-30 18:33:00,
2013-01-30 12:40:00,21.0,-99.9,-100.00,North,359,21.0,26.0,-999,-99.99,,,-99.99,,2013-01-30 18:40:00,
2013-01-30 12:43:00,22.0,-99.9,-100.00,North,349,24.0,0.0,-999,-99.99,,,-99.99,,2013-01-30 18:43:00,
2013-01-30 12:53:00,22.0,-99.9,-100.00,North,349,24.0,0.0,-999,-99.99,,,-99.99,,2013-01-30 18:53:00,
2013-01-30 13:13:00,21.0,-99.9,-100.00,North,359,21.0,26.0,-999,-99.99,,,-99.99,,2013-01-30 19:13:00,
2013-01-30 13:23:00,21.0,-99.9,-100.00,North,359,21.0,26.0,-999,-99.99,,,-99.99,,2013-01-30 19:23:00,
2013-01-30 13:33:00,21.0,-99.9,-100.00,North,359,21.0,26.0,-999,-99.99,,,-99.99,,2013-01-30 19:33:00,
2013-01-30 13:40:00,20.0,-99.9,-100.00,North,354,21.0,24.0,-999,-99.99,,,-99.99,,2013-01-30 19:40:00,
2013-01-30 14:12:00,20.0,-99.9,-100.00,North,354,21.0,24.0,-999,-99.99,,,-99.99,,2013-01-30 20:12:00,
2013-01-30 14:22:00,20.0,-99.9,-100.00,North,354,21.0,24.0,-999,-99.99,,,-99.99,,2013-01-30 20:22:00,
2013-01-30 14:33:00,20.0,-99.9,-100.00,North,354,21.0,24.0,-999,-99.99,,,-99.99,,2013-01-30 20:33:00,
2013-01-30 14:40:00,20.0,-99.9,-100.00,North,349,17.0,23.0,-999,-99.99,,,-99.99,,2013-01-30 20:40:00,
2013-01-30 15:12:00,20.0,-99.9,-100.00,North,349,17.0,23.0,-999,-99.99,,,-99.99,,2013-01-30 21:12:00,
2013-01-30 15:23:00,20.0,-99.9,-100.00,North,349,17.0,23.0,-999,-99.99,,,-99.99,,2013-01-30 21:23:00,
2013-01-30 15:32:00,20.0,-99.9,-100.00,North,349,17.0,23.0,-999,-99.99,,,-99.99,,2013-01-30 21:32:00,
2013-01-30 15:40:00,20.0,-99.9,-100.00,NNW,344,17.0,22.0,-999,-99.99,,,-99.99,,2013-01-30 21:40:00,
2013-01-30 16:12:00,20.0,-99.9,-100.00,NNW,344,17.0,22.0,-999,-99.99,,,-99.99,,2013-01-30 22:12:00,
2013-01-30 16:23:00,20.0,-99.9,-100.00,NNW,344,17.0,22.0,-999,-99.99,,,-99.99,,2013-01-30 22:23:00,
2013-01-30 16:33:00,20.0,-99.9,-100.00,NNW,344,17.0,22.0,-999,-99.99,,,-99.99,,2013-01-30 22:33:00,
2013-01-30 16:40:00,19.0,-99.9,-100.00,North,352,19.0,23.0,-999,-99.99,,,-99.99,,2013-01-30 22:40:00,
2013-01-30 17:12:00,19.0,-99.9,-100.00,North,352,19.0,23.0,-999,-99.99,,,-99.99,,2013-01-30 23:12:00,
2013-01-30 17:23:00,19.0,-99.9,-100.00,North,352,19.0,23.0,-999,-99.99,,,-99.99,,2013-01-30 23:23:00,
2013-01-30 17:33:00,19.0,-99.9,-100.00,North,352,19.0,23.0,-999,-99.99,,,-99.99,,2013-01-30 23:33:00,
2013-01-30 17:40:00,19.0,-99.9,-100.00,NNW,337,19.0,25.0,-999,-99.99,,,-99.99,,2013-01-30 23:40:00,
2013-01-30 18:11:00,19.0,-99.9,-100.00,NNW,337,19.0,25.0,-999,-99.99,,,-99.99,,2013-01-31 00:11:00,
2013-01-30 18:22:00,19.0,-99.9,-100.00,NNW,337,19.0,25.0,-999,-99.99,,,-99.99,,2013-01-31 00:22:00,
2013-01-30 18:32:00,19.0,-99.9,-100.00,NNW,337,19.0,25.0,-999,-99.99,,,-99.99,,2013-01-31 00:32:00,
2013-01-30 18:40:00,18.0,-99.9,-100.00,NNW,338,20.0,25.0,-999,-99.99,,,-99.99,,2013-01-31 00:40:00,
2013-01-30 19:12:00,18.0,-99.9,-100.00,NNW,338,20.0,25.0,-999,-99.99,,,-99.99,,2013-01-31 01:12:00,
2013-01-30 19:22:00,18.0,-99.9,-100.00,NNW,338,20.0,25.0,-999,-99.99,,,-99.99,,2013-01-31 01:22:00,
2013-01-30 19:32:00,18.0,-99.9,-100.00,NNW,338,20.0,25.0,-999,-99.99,,,-99.99,,2013-01-31 01:32:00,
2013-01-30 19:40:00,17.0,-99.9,-100.00,NNW,336,21.0,25.0,-999,-99.99,,,-99.99,,2013-01-31 01:40:00,
2013-01-30 20:12:00,17.0,-99.9,-100.00,NNW,336,21.0,25.0,-999,-99.99,,,-99.99,,2013-01-31 02:12:00,
2013-01-30 20:22:00,17.0,-99.9,-100.00,NNW,336,21.0,25.0,-999,-99.99,,,-99.99,,2013-01-31 02:22:00,
2013-01-30 20:32:00,17.0,-99.9,-100.00,NNW,336,21.0,25.0,-999,-99.99,,,-99.99,,2013-01-31 02:32:00,
2013-01-30 20:40:00,16.0,-99.9,-100.00,NW,324,21.0,25.0,-999,-99.99,,,-99.99,,2013-01-31 02:40:00,
2013-01-30 21:12:00,16.0,-99.9,-100.00,NW,324,21.0,25.0,-999,-99.99,,,-99.99,,2013-01-31 03:12:00,
2013-01-30 21:22:00,16.0,-99.9,-100.00,NW,324,21.0,25.0,-999,-99.99,,,-99.99,,2013-01-31 03:22:00,
2013-01-30 21:33:00,16.0,-99.9,-100.00,NW,324,21.0,25.0,-999,-99.99,,,-99.99,,2013-01-31 03:33:00,
2013-01-30 21:40:00,16.0,-99.9,-100.00,NW,326,20.0,27.0,-999,-99.99,,,-99.99,,2013-01-31 03:40:00,
2013-01-30 22:11:00,16.0,-99.9,-100.00,NW,326,20.0,27.0,-999,-99.99,,,-99.99,,2013-01-31 04:11:00,
2013-01-30 22:22:00,16.0,-99.9,-100.00,NW,326,20.0,27.0,-999,-99.99,,,-99.99,,2013-01-31 04:22:00,
2013-01-30 22:32:00,16.0,-99.9,-100.00,NW,326,20.0,27.0,-999,-99.99,,,-99.99,,2013-01-31 04:32:00,
2013-01-30 22:40:00,16.0,-99.9,-100.00,NNW,328,21.0,24.0,-999,-99.99,,,-99.99,,2013-01-31 04:40:00,
2013-01-30 23:12:00,16.0,-99.9,-100.00,NNW,328,21.0,24.0,-999,-99.99,,,-99.99,,2013-01-31 05:12:00,
2013-01-30 23:22:00,16.0,-99.9,-100.00,NNW,328,21.0,24.0,-999,-99.99,,,-99.99,,2013-01-31 05:22:00,
2013-01-30 23:32:00,16.0,-99.9,-100.00,NNW,328,21.0,24.0,-999,-99.99,,,-99.99,,2013-01-31 05:32:00,